Year,Month,Day,Hour,Minute,Value (Times are PST for temperature in C)
2011,03,02,00,00,4.70
2011,03,02,00,01,4.60
2011,03,02,00,02,4.70
2011,03,02,00,03,4.70
2011,03,02,00,04,4.70
2011,03,02,00,06,4.70
2011,03,02,00,07,4.70
2011,03,02,00,08,4.70
2011,03,02,00,09,4.70
2011,03,02,00,10,4.70
2011,03,02,00,11,4.70
2011,03,02,00,12,4.70
2011,03,02,00,13,4.70
2011,03,02,00,14,4.70
2011,03,02,00,16,4.70
2011,03,02,00,17,4.70
2011,03,02,00,18,4.70
2011,03,02,00,19,4.70
2011,03,02,00,21,4.70
2011,03,02,00,22,4.60
2011,03,02,00,23,4.70
2011,03,02,00,24,4.60
2011,03,02,00,25,4.70
2011,03,02,00,27,4.70
2011,03,02,00,28,4.70
2011,03,02,00,29,4.70
2011,03,02,00,30,4.70
2011,03,02,00,32,4.70
2011,03,02,00,33,4.70
2011,03,02,00,34,4.70
2011,03,02,00,35,4.70
2011,03,02,00,36,4.70
2011,03,02,00,37,4.70
2011,03,02,00,38,4.70
2011,03,02,00,39,4.70
2011,03,02,00,41,4.80
2011,03,02,00,42,4.80
2011,03,02,00,43,4.90
2011,03,02,00,45,4.90
2011,03,02,00,46,4.90
2011,03,02,00,47,4.90
2011,03,02,00,48,4.90
2011,03,02,00,50,4.90
2011,03,02,00,51,4.90
2011,03,02,00,52,4.90
2011,03,02,00,53,4.90
2011,03,02,00,54,4.90
2011,03,02,00,55,4.90
2011,03,02,00,57,4.90
2011,03,02,00,58,4.90
2011,03,02,00,59,4.90
2011,03,02,01,00,4.90
2011,03,02,01,01,4.90
2011,03,02,01,03,4.90
2011,03,02,01,04,4.90
2011,03,02,01,05,4.90
2011,03,02,01,06,4.90
2011,03,02,01,08,4.90
2011,03,02,01,09,4.90
2011,03,02,01,10,4.90
2011,03,02,01,11,4.90
2011,03,02,01,13,4.90
2011,03,02,01,14,4.90
2011,03,02,01,15,4.90
2011,03,02,01,16,4.90
2011,03,02,01,18,4.90
2011,03,02,01,19,4.90
2011,03,02,01,20,4.90
2011,03,02,01,21,4.90
2011,03,02,01,22,4.90
2011,03,02,01,23,4.90
2011,03,02,01,24,4.80
2011,03,02,01,25,4.80
2011,03,02,01,27,4.70
2011,03,02,01,28,4.60
2011,03,02,01,29,4.50
2011,03,02,01,30,4.50
2011,03,02,01,31,4.50
2011,03,02,01,32,4.50
2011,03,02,01,33,4.50
2011,03,02,01,34,4.50
2011,03,02,01,35,4.50
2011,03,02,01,36,4.50
2011,03,02,01,37,4.60
2011,03,02,01,38,4.60
2011,03,02,01,39,4.60
2011,03,02,01,40,4.60
2011,03,02,01,41,4.60
2011,03,02,01,42,4.70
2011,03,02,01,44,4.70
2011,03,02,01,45,4.70
2011,03,02,01,46,4.70
2011,03,02,01,47,4.70
2011,03,02,01,48,4.70
2011,03,02,01,50,4.70
2011,03,02,01,51,4.70
2011,03,02,01,52,4.80
2011,03,02,01,53,4.80
2011,03,02,01,54,4.80
2011,03,02,01,55,4.80
2011,03,02,01,56,4.80
2011,03,02,01,57,4.80
2011,03,02,01,58,4.80
2011,03,02,01,59,4.80
2011,03,02,02,00,4.80
2011,03,02,02,01,4.80
2011,03,02,02,02,4.80
2011,03,02,02,03,4.80
2011,03,02,02,04,4.80
2011,03,02,02,05,4.80
2011,03,02,02,07,4.80
2011,03,02,02,08,4.80
2011,03,02,02,09,4.70
2011,03,02,02,10,4.70
2011,03,02,02,11,4.70
2011,03,02,02,12,4.70
2011,03,02,02,13,4.70
2011,03,02,02,14,4.70
2011,03,02,02,15,4.70
2011,03,02,02,16,4.70
2011,03,02,02,18,4.70
2011,03,02,02,19,4.70
2011,03,02,02,20,4.70
2011,03,02,02,21,4.70
2011,03,02,02,22,4.70
2011,03,02,02,23,4.80
2011,03,02,02,24,4.80
2011,03,02,02,25,4.80
2011,03,02,02,26,4.80
2011,03,02,02,27,4.80
2011,03,02,02,28,4.80
2011,03,02,02,29,4.80
2011,03,02,02,30,4.80
2011,03,02,02,31,4.80
2011,03,02,02,32,4.80
2011,03,02,02,33,4.80
2011,03,02,02,34,4.80
2011,03,02,02,35,4.80
2011,03,02,02,36,4.80
2011,03,02,02,37,4.80
2011,03,02,02,38,4.80
2011,03,02,02,39,4.80
2011,03,02,02,40,4.90
2011,03,02,02,41,4.90
2011,03,02,02,42,4.90
2011,03,02,02,43,4.80
2011,03,02,02,44,4.80
2011,03,02,02,45,4.80
2011,03,02,02,46,4.80
2011,03,02,02,47,4.80
2011,03,02,02,48,4.90
2011,03,02,02,49,4.90
2011,03,02,02,50,4.90
2011,03,02,02,51,4.90
2011,03,02,02,52,4.90
2011,03,02,02,53,5.00
2011,03,02,02,54,5.00
2011,03,02,02,55,5.10
2011,03,02,02,56,5.10
2011,03,02,02,57,5.10
2011,03,02,02,58,5.10
2011,03,02,02,59,5.20
2011,03,02,03,00,5.20
2011,03,02,03,01,5.20
2011,03,02,03,02,5.30
2011,03,02,03,03,5.30
2011,03,02,03,04,5.30
2011,03,02,03,06,5.30
2011,03,02,03,07,5.40
2011,03,02,03,08,5.40
2011,03,02,03,09,5.50
2011,03,02,03,10,5.50
2011,03,02,03,11,5.50
2011,03,02,03,12,5.60
2011,03,02,03,13,5.60
2011,03,02,03,14,5.60
2011,03,02,03,15,5.60
2011,03,02,03,17,5.60
2011,03,02,03,18,5.60
2011,03,02,03,19,5.70
2011,03,02,03,20,5.70
2011,03,02,03,21,5.80
2011,03,02,03,22,5.80
2011,03,02,03,23,5.90
2011,03,02,03,24,6.00
2011,03,02,03,25,6.10
2011,03,02,03,26,6.20
2011,03,02,03,28,6.30
2011,03,02,03,29,6.30
2011,03,02,03,30,6.30
2011,03,02,03,31,6.30
2011,03,02,03,32,6.40
2011,03,02,03,34,6.40
2011,03,02,03,35,6.40
2011,03,02,03,36,6.40
2011,03,02,03,37,6.50
2011,03,02,03,39,6.60
2011,03,02,03,40,6.70
2011,03,02,03,41,6.80
2011,03,02,03,42,6.90
2011,03,02,03,44,7.00
2011,03,02,03,45,7.10
2011,03,02,03,46,7.20
2011,03,02,03,47,7.30
2011,03,02,03,48,7.30
2011,03,02,03,50,7.40
2011,03,02,03,51,7.40
2011,03,02,03,52,7.50
2011,03,02,03,54,7.60
2011,03,02,03,55,7.60
2011,03,02,03,56,7.60
2011,03,02,03,57,7.70
2011,03,02,03,58,7.70
2011,03,02,03,59,7.70
2011,03,02,04,01,7.80
2011,03,02,04,02,7.80
2011,03,02,04,03,7.80
2011,03,02,04,04,7.80
2011,03,02,04,06,7.80
2011,03,02,04,07,7.80
2011,03,02,04,08,7.80
2011,03,02,04,09,7.80
2011,03,02,04,10,7.80
2011,03,02,04,12,7.70
2011,03,02,04,13,7.70
2011,03,02,04,14,7.70
2011,03,02,04,15,7.70
2011,03,02,04,16,7.70
2011,03,02,04,18,7.70
2011,03,02,04,19,7.70
2011,03,02,04,20,7.70
2011,03,02,04,21,7.70
2011,03,02,04,23,7.60
2011,03,02,04,24,7.60
2011,03,02,04,25,7.50
2011,03,02,04,27,7.50
2011,03,02,04,28,7.40
2011,03,02,04,29,7.40
2011,03,02,04,30,7.40
2011,03,02,04,32,7.30
2011,03,02,04,33,7.30
2011,03,02,04,34,7.30
2011,03,02,04,35,7.30
2011,03,02,04,36,7.30
2011,03,02,04,37,7.30
2011,03,02,04,38,7.30
2011,03,02,04,39,7.30
2011,03,02,04,40,7.30
2011,03,02,04,41,7.40
2011,03,02,04,42,7.40
2011,03,02,04,43,7.40
2011,03,02,04,45,7.40
2011,03,02,04,46,7.40
2011,03,02,04,47,7.40
2011,03,02,04,48,7.40
2011,03,02,04,49,7.40
2011,03,02,04,50,7.40
2011,03,02,04,51,7.40
2011,03,02,04,52,7.40
2011,03,02,04,53,7.40
2011,03,02,04,54,7.40
2011,03,02,04,55,7.40
2011,03,02,04,56,7.30
2011,03,02,04,57,7.30
2011,03,02,04,58,7.30
2011,03,02,04,59,7.30
2011,03,02,05,00,7.30
2011,03,02,05,01,7.20
2011,03,02,05,02,7.20
2011,03,02,05,04,7.20
2011,03,02,05,05,7.20
2011,03,02,05,06,7.20
2011,03,02,05,07,7.20
2011,03,02,05,08,7.10
2011,03,02,05,09,7.10
2011,03,02,05,10,7.10
2011,03,02,05,11,7.10
2011,03,02,05,12,7.10
2011,03,02,05,13,7.10
2011,03,02,05,15,7.00
2011,03,02,05,16,7.00
2011,03,02,05,17,7.00
2011,03,02,05,18,7.00
2011,03,02,05,20,6.90
2011,03,02,05,21,6.90
2011,03,02,05,22,6.90
2011,03,02,05,23,6.90
2011,03,02,05,24,6.90
2011,03,02,05,25,6.90
2011,03,02,05,26,6.90
2011,03,02,05,27,6.90
2011,03,02,05,28,6.90
2011,03,02,05,29,6.80
2011,03,02,05,30,6.80
2011,03,02,05,31,6.80
2011,03,02,05,33,6.80
2011,03,02,05,34,6.80
2011,03,02,05,35,6.80
2011,03,02,05,36,6.80
2011,03,02,05,37,6.80
2011,03,02,05,38,6.80
2011,03,02,05,40,6.70
2011,03,02,05,41,6.70
2011,03,02,05,42,6.70
2011,03,02,05,43,6.70
2011,03,02,05,45,6.60
2011,03,02,05,46,6.60
2011,03,02,05,47,6.60
2011,03,02,05,48,6.60
2011,03,02,05,49,6.60
2011,03,02,05,50,6.60
2011,03,02,05,51,6.60
2011,03,02,05,52,6.60
2011,03,02,05,53,6.60
2011,03,02,05,54,6.50
2011,03,02,05,55,6.50
2011,03,02,05,56,6.50
2011,03,02,05,57,6.50
2011,03,02,05,58,6.40
2011,03,02,05,59,6.40
2011,03,02,06,00,6.40
2011,03,02,06,01,6.40
2011,03,02,06,02,6.40
2011,03,02,06,03,6.40
2011,03,02,06,04,6.40
2011,03,02,06,05,6.40
2011,03,02,06,07,6.40
2011,03,02,06,08,6.40
2011,03,02,06,09,6.40
2011,03,02,06,10,6.40
2011,03,02,06,11,6.40
2011,03,02,06,12,6.40
2011,03,02,06,14,6.40
2011,03,02,06,15,6.40
2011,03,02,06,16,6.40
2011,03,02,06,17,6.40
2011,03,02,06,18,6.40
2011,03,02,06,19,6.40
2011,03,02,06,20,6.40
2011,03,02,06,21,6.30
2011,03,02,06,22,6.30
2011,03,02,06,24,6.40
2011,03,02,06,25,6.30
2011,03,02,06,26,6.30
2011,03,02,06,27,6.30
2011,03,02,06,28,6.30
2011,03,02,06,29,6.30
2011,03,02,06,30,6.40
2011,03,02,06,31,6.40
2011,03,02,06,33,6.40
2011,03,02,06,34,6.40
2011,03,02,06,35,6.40
2011,03,02,06,36,6.40
2011,03,02,06,37,6.40
2011,03,02,06,38,6.40
2011,03,02,06,39,6.40
2011,03,02,06,40,6.30
2011,03,02,06,41,6.40
2011,03,02,06,42,6.40
2011,03,02,06,43,6.40
2011,03,02,06,44,6.30
2011,03,02,06,45,6.30
2011,03,02,06,47,6.30
2011,03,02,06,48,6.30
2011,03,02,06,49,6.30
2011,03,02,06,50,6.30
2011,03,02,06,51,6.30
2011,03,02,06,53,6.30
2011,03,02,06,54,6.30
2011,03,02,06,55,6.30
2011,03,02,06,56,6.30
2011,03,02,06,58,6.30
2011,03,02,06,59,6.30
2011,03,02,07,00,6.30
2011,03,02,07,01,6.30
2011,03,02,07,02,6.30
2011,03,02,07,04,6.30
2011,03,02,07,05,6.30
2011,03,02,07,06,6.30
2011,03,02,07,07,6.30
2011,03,02,07,09,6.30
2011,03,02,07,10,6.30
2011,03,02,07,11,6.30
2011,03,02,07,12,6.30
2011,03,02,07,13,6.30
2011,03,02,07,15,6.40
2011,03,02,07,16,6.40
2011,03,02,07,17,6.40
2011,03,02,07,18,6.40
2011,03,02,07,19,6.40
2011,03,02,07,20,6.40
2011,03,02,07,21,6.40
2011,03,02,07,22,6.50
2011,03,02,07,23,6.40
2011,03,02,07,24,6.50
2011,03,02,07,25,6.50
2011,03,02,07,26,6.50
2011,03,02,07,27,6.50
2011,03,02,07,29,6.60
2011,03,02,07,30,6.60
2011,03,02,07,31,6.60
2011,03,02,07,32,6.60
2011,03,02,07,33,6.70
2011,03,02,07,34,6.70
2011,03,02,07,35,6.70
2011,03,02,07,36,6.70
2011,03,02,07,37,6.70
2011,03,02,07,38,6.80
2011,03,02,07,40,6.80
2011,03,02,07,41,6.80
2011,03,02,07,42,6.90
2011,03,02,07,43,6.90
2011,03,02,07,44,7.00
2011,03,02,07,45,7.10
2011,03,02,07,46,7.10
2011,03,02,07,47,7.20
2011,03,02,07,48,7.30
2011,03,02,07,49,7.30
2011,03,02,07,50,7.30
2011,03,02,07,51,7.30
2011,03,02,07,52,7.40
2011,03,02,07,53,7.40
2011,03,02,07,54,7.40
2011,03,02,07,55,7.40
2011,03,02,07,56,7.40
2011,03,02,07,57,7.50
2011,03,02,07,58,7.50
2011,03,02,07,59,7.50
2011,03,02,08,00,7.50
2011,03,02,08,01,7.50
2011,03,02,08,02,7.50
2011,03,02,08,03,7.50
2011,03,02,08,04,7.50
2011,03,02,08,05,7.60
2011,03,02,08,06,7.60
2011,03,02,08,08,7.70
2011,03,02,08,09,7.70
2011,03,02,08,10,7.70
2011,03,02,08,11,7.80
2011,03,02,08,13,7.80
2011,03,02,08,14,7.90
2011,03,02,08,15,7.90
2011,03,02,08,16,8.00
2011,03,02,08,18,8.10
2011,03,02,08,19,8.10
2011,03,02,08,20,8.10
2011,03,02,08,21,8.20
2011,03,02,08,22,8.20
2011,03,02,08,23,8.20
2011,03,02,08,25,8.30
2011,03,02,08,26,8.30
2011,03,02,08,27,8.30
2011,03,02,08,28,8.30
2011,03,02,08,29,8.30
2011,03,02,08,30,8.30
2011,03,02,08,31,8.40
2011,03,02,08,32,8.40
2011,03,02,08,33,8.40
2011,03,02,08,34,8.40
2011,03,02,08,36,8.40
2011,03,02,08,37,8.50
2011,03,02,08,38,8.50
2011,03,02,08,39,8.50
2011,03,02,08,41,8.60
2011,03,02,08,42,8.60
2011,03,02,08,43,8.60
2011,03,02,08,44,8.70
2011,03,02,08,46,8.80
2011,03,02,08,47,8.90
2011,03,02,08,48,9.00
2011,03,02,08,49,9.00
2011,03,02,08,51,9.10
2011,03,02,08,52,9.10
2011,03,02,08,53,9.20
2011,03,02,08,54,9.20
2011,03,02,08,56,9.30
2011,03,02,08,57,9.30
2011,03,02,08,58,9.30
2011,03,02,09,00,9.40
2011,03,02,09,01,9.40
2011,03,02,09,02,9.40
2011,03,02,09,03,9.50
2011,03,02,09,05,9.60
2011,03,02,09,06,9.60
2011,03,02,09,07,9.70
2011,03,02,09,08,9.70
2011,03,02,09,09,9.80
2011,03,02,09,10,9.80
2011,03,02,09,12,9.90
2011,03,02,09,13,9.90
2011,03,02,09,14,10.00
2011,03,02,09,16,10.00
2011,03,02,09,17,9.90
2011,03,02,09,18,9.90
2011,03,02,09,19,9.90
2011,03,02,09,20,9.80
2011,03,02,09,22,9.80
2011,03,02,09,23,9.70
2011,03,02,09,24,9.70
2011,03,02,09,25,9.70
2011,03,02,09,27,9.70
2011,03,02,09,28,9.70
2011,03,02,09,29,9.70
2011,03,02,09,30,9.80
2011,03,02,09,31,9.80
2011,03,02,09,32,9.80
2011,03,02,09,33,9.80
2011,03,02,09,34,9.80
2011,03,02,09,36,9.70
2011,03,02,09,37,9.60
2011,03,02,09,38,9.60
2011,03,02,09,39,9.40
2011,03,02,09,40,9.30
2011,03,02,09,42,9.30
2011,03,02,09,43,9.20
2011,03,02,09,44,9.10
2011,03,02,09,45,9.10
2011,03,02,09,46,9.10
2011,03,02,09,47,9.00
2011,03,02,09,48,9.00
2011,03,02,09,49,8.90
2011,03,02,09,50,8.90
2011,03,02,09,51,8.90
2011,03,02,09,53,8.90
2011,03,02,09,55,8.90
2011,03,02,09,56,8.90
2011,03,02,09,57,8.90
2011,03,02,09,58,9.00
2011,03,02,09,59,9.00
2011,03,02,10,00,9.10
2011,03,02,10,01,9.10
2011,03,02,10,02,9.10
2011,03,02,10,03,9.20
2011,03,02,10,04,9.20
2011,03,02,10,05,9.20
2011,03,02,10,06,9.20
2011,03,02,10,08,9.20
2011,03,02,10,09,9.20
2011,03,02,10,10,9.20
2011,03,02,10,11,9.30
2011,03,02,10,12,9.30
2011,03,02,10,13,9.30
2011,03,02,10,14,9.30
2011,03,02,10,15,9.30
2011,03,02,10,16,9.30
2011,03,02,10,18,9.20
2011,03,02,10,19,9.20
2011,03,02,10,20,9.10
2011,03,02,10,21,9.10
2011,03,02,10,22,9.10
2011,03,02,10,24,9.20
2011,03,02,10,25,9.30
2011,03,02,10,26,9.40
2011,03,02,10,27,9.40
2011,03,02,10,28,9.40
2011,03,02,10,29,9.40
2011,03,02,10,30,9.50
2011,03,02,10,31,9.60
2011,03,02,10,32,9.60
2011,03,02,10,33,9.60
2011,03,02,10,34,9.50
2011,03,02,10,35,9.30
2011,03,02,10,37,9.30
2011,03,02,10,38,9.10
2011,03,02,10,39,8.90
2011,03,02,10,40,8.80
2011,03,02,10,41,8.80
2011,03,02,10,42,8.70
2011,03,02,10,43,8.70
2011,03,02,10,44,8.60
2011,03,02,10,45,8.60
2011,03,02,10,47,8.50
2011,03,02,10,48,8.40
2011,03,02,10,49,8.40
2011,03,02,10,51,8.40
2011,03,02,10,52,8.40
2011,03,02,10,53,8.30
2011,03,02,10,54,8.30
2011,03,02,10,55,8.30
2011,03,02,10,56,8.30
2011,03,02,10,57,8.30
2011,03,02,10,58,8.20
2011,03,02,10,59,8.20
2011,03,02,11,00,8.20
2011,03,02,11,01,8.20
2011,03,02,11,02,8.10
2011,03,02,11,03,8.10
2011,03,02,11,04,7.90
2011,03,02,11,05,7.90
2011,03,02,11,06,7.80
2011,03,02,11,07,7.80
2011,03,02,11,08,7.80
2011,03,02,11,09,7.70
2011,03,02,11,10,7.60
2011,03,02,11,11,7.40
2011,03,02,11,12,7.40
2011,03,02,11,13,7.40
2011,03,02,11,14,7.30
2011,03,02,11,15,7.30
2011,03,02,11,16,7.40
2011,03,02,11,17,7.40
2011,03,02,11,18,7.50
2011,03,02,11,19,7.50
2011,03,02,11,20,7.60
2011,03,02,11,21,7.60
2011,03,02,11,22,7.60
2011,03,02,11,23,7.70
2011,03,02,11,24,7.70
2011,03,02,11,25,7.70
2011,03,02,11,26,7.70
2011,03,02,11,27,7.70
2011,03,02,11,28,7.70
2011,03,02,11,29,7.80
2011,03,02,11,30,7.80
2011,03,02,11,31,7.90
2011,03,02,11,32,7.90
2011,03,02,11,33,8.00
2011,03,02,11,34,8.10
2011,03,02,11,35,8.10
2011,03,02,11,36,8.10
2011,03,02,11,38,8.10
2011,03,02,11,39,7.90
2011,03,02,11,40,7.90
2011,03,02,11,41,7.80
2011,03,02,11,42,7.70
2011,03,02,11,43,7.70
2011,03,02,11,44,7.60
2011,03,02,11,45,7.60
2011,03,02,11,46,7.50
2011,03,02,11,47,7.50
2011,03,02,11,48,7.40
2011,03,02,11,49,7.30
2011,03,02,11,50,7.30
2011,03,02,11,51,7.20
2011,03,02,11,52,7.20
2011,03,02,11,53,7.20
2011,03,02,11,54,7.20
2011,03,02,11,55,7.20
2011,03,02,11,56,7.20
2011,03,02,11,57,7.30
2011,03,02,11,58,7.40
2011,03,02,11,59,7.60
2011,03,02,12,00,7.70
2011,03,02,12,02,7.80
2011,03,02,12,03,8.00
2011,03,02,12,04,8.10
2011,03,02,12,05,8.20
2011,03,02,12,06,8.20
2011,03,02,12,07,8.20
2011,03,02,12,08,8.30
2011,03,02,12,09,8.40
2011,03,02,12,10,8.40
2011,03,02,12,11,8.50
2011,03,02,12,12,8.60
2011,03,02,12,13,8.70
2011,03,02,12,14,8.70
2011,03,02,12,15,8.80
2011,03,02,12,16,8.80
2011,03,02,12,17,8.90
2011,03,02,12,18,8.90
2011,03,02,12,20,8.90
2011,03,02,12,21,8.80
2011,03,02,12,22,8.80
2011,03,02,12,23,8.80
2011,03,02,12,25,8.70
2011,03,02,12,26,8.80
2011,03,02,12,27,8.80
2011,03,02,12,28,8.70
2011,03,02,12,29,8.60
2011,03,02,12,31,8.40
2011,03,02,12,32,8.30
2011,03,02,12,33,8.30
2011,03,02,12,34,8.30
2011,03,02,12,35,8.30
2011,03,02,12,36,8.30
2011,03,02,12,37,8.30
2011,03,02,12,38,8.30
2011,03,02,12,39,8.30
2011,03,02,12,40,8.30
2011,03,02,12,41,8.20
2011,03,02,12,42,8.20
2011,03,02,12,43,8.10
2011,03,02,12,44,8.00
2011,03,02,12,45,7.90
2011,03,02,12,46,7.90
2011,03,02,12,47,7.90
2011,03,02,12,48,7.80
2011,03,02,12,49,7.80
2011,03,02,12,50,7.70
2011,03,02,12,52,7.70
2011,03,02,12,53,7.60
2011,03,02,12,54,7.60
2011,03,02,12,55,7.50
2011,03,02,12,56,7.40
2011,03,02,12,57,7.40
2011,03,02,12,58,7.40
2011,03,02,12,59,7.40
2011,03,02,13,00,7.30
2011,03,02,13,02,7.30
2011,03,02,13,03,7.30
2011,03,02,13,04,7.30
2011,03,02,13,05,7.30
2011,03,02,13,06,7.30
2011,03,02,13,07,7.40
2011,03,02,13,09,7.40
2011,03,02,13,10,7.60
2011,03,02,13,11,7.70
2011,03,02,13,12,7.70
2011,03,02,13,13,7.80
2011,03,02,13,14,7.80
2011,03,02,13,15,7.90
2011,03,02,13,16,8.00
2011,03,02,13,17,8.10
2011,03,02,13,19,8.10
2011,03,02,13,20,8.10
2011,03,02,13,21,8.20
2011,03,02,13,22,8.30
2011,03,02,13,24,8.40
2011,03,02,13,25,8.60
2011,03,02,13,26,8.70
2011,03,02,13,27,8.80
2011,03,02,13,28,8.60
2011,03,02,13,30,8.50
2011,03,02,13,31,8.20
2011,03,02,13,32,8.10
2011,03,02,13,33,7.90
2011,03,02,13,34,7.90
2011,03,02,13,35,7.70
2011,03,02,13,36,7.60
2011,03,02,13,37,7.40
2011,03,02,13,38,7.30
2011,03,02,13,39,7.20
2011,03,02,13,40,7.10
2011,03,02,13,41,7.10
2011,03,02,13,42,6.90
2011,03,02,13,43,6.90
2011,03,02,13,44,6.90
2011,03,02,13,45,6.90
2011,03,02,13,46,6.80
2011,03,02,13,47,6.80
2011,03,02,13,48,6.80
2011,03,02,13,49,6.90
2011,03,02,13,50,6.90
2011,03,02,13,51,6.90
2011,03,02,13,52,6.90
2011,03,02,13,53,6.90
2011,03,02,13,54,6.90
2011,03,02,13,55,6.90
2011,03,02,13,56,6.90
2011,03,02,13,57,6.90
2011,03,02,13,59,6.90
2011,03,02,14,00,6.90
2011,03,02,14,01,6.90
2011,03,02,14,02,6.90
2011,03,02,14,04,6.90
2011,03,02,14,05,7.10
2011,03,02,14,06,7.10
2011,03,02,14,07,7.10
2011,03,02,14,08,7.10
2011,03,02,14,10,7.20
2011,03,02,14,11,7.20
2011,03,02,14,12,7.20
2011,03,02,14,13,7.20
2011,03,02,14,14,7.20
2011,03,02,14,15,7.30
2011,03,02,14,16,7.30
2011,03,02,14,17,7.40
2011,03,02,14,18,7.60
2011,03,02,14,19,7.70
2011,03,02,14,21,7.80
2011,03,02,14,22,7.90
2011,03,02,14,23,8.00
2011,03,02,14,24,8.00
2011,03,02,14,25,8.00
2011,03,02,14,26,8.00
2011,03,02,14,27,8.10
2011,03,02,14,28,8.10
2011,03,02,14,29,8.20
2011,03,02,14,30,8.20
2011,03,02,14,32,8.30
2011,03,02,14,33,8.40
2011,03,02,14,34,8.40
2011,03,02,14,35,8.40
2011,03,02,14,36,8.40
2011,03,02,14,37,8.40
2011,03,02,14,38,8.40
2011,03,02,14,39,8.40
2011,03,02,14,40,8.30
2011,03,02,14,41,8.20
2011,03,02,14,43,7.90
2011,03,02,14,44,7.60
2011,03,02,14,45,7.40
2011,03,02,14,46,7.40
2011,03,02,14,47,7.20
2011,03,02,14,49,7.10
2011,03,02,14,50,6.80
2011,03,02,14,51,6.70
2011,03,02,14,52,6.70
2011,03,02,14,54,6.60
2011,03,02,14,55,6.50
2011,03,02,14,56,6.50
2011,03,02,14,57,6.60
2011,03,02,14,58,6.60
2011,03,02,14,59,6.70
2011,03,02,15,00,6.90
2011,03,02,15,01,7.00
2011,03,02,15,02,7.10
2011,03,02,15,03,7.10
2011,03,02,15,04,7.10
2011,03,02,15,05,7.10
2011,03,02,15,06,7.10
2011,03,02,15,07,7.10
2011,03,02,15,09,7.20
2011,03,02,15,10,7.30
2011,03,02,15,11,7.30
2011,03,02,15,12,7.40
2011,03,02,15,14,7.60
2011,03,02,15,15,7.80
2011,03,02,15,16,7.80
2011,03,02,15,17,7.80
2011,03,02,15,19,7.70
2011,03,02,15,20,7.40
2011,03,02,15,21,7.40
2011,03,02,15,22,7.30
2011,03,02,15,24,7.30
2011,03,02,15,25,7.20
2011,03,02,15,26,7.20
2011,03,02,15,27,7.30
2011,03,02,15,29,7.30
2011,03,02,15,30,7.30
2011,03,02,15,31,7.30
2011,03,02,15,32,7.30
2011,03,02,15,34,7.40
2011,03,02,15,35,7.40
2011,03,02,15,36,7.60
2011,03,02,15,37,7.80
2011,03,02,15,38,7.80
2011,03,02,15,39,7.90
2011,03,02,15,40,8.10
2011,03,02,15,41,8.20
2011,03,02,15,42,8.20
2011,03,02,15,43,8.20
2011,03,02,15,44,8.20
2011,03,02,15,45,8.30
2011,03,02,15,47,8.30
2011,03,02,15,48,8.40
2011,03,02,15,49,8.40
2011,03,02,15,50,8.40
2011,03,02,15,51,8.30
2011,03,02,15,52,8.30
2011,03,02,15,53,8.20
2011,03,02,15,54,8.20
2011,03,02,15,55,8.10
2011,03,02,15,57,8.10
2011,03,02,15,58,8.00
2011,03,02,15,59,7.90
2011,03,02,16,00,7.90
2011,03,02,16,01,7.90
2011,03,02,16,02,7.90
2011,03,02,16,03,7.80
2011,03,02,16,04,7.80
2011,03,02,16,05,7.80
2011,03,02,16,07,7.70
2011,03,02,16,08,7.50
2011,03,02,16,09,7.30
2011,03,02,16,10,6.90
2011,03,02,16,12,6.60
2011,03,02,16,13,6.20
2011,03,02,16,14,5.80
2011,03,02,16,15,5.60
2011,03,02,16,16,5.40
2011,03,02,16,17,5.40
2011,03,02,16,18,5.30
2011,03,02,16,19,5.20
2011,03,02,16,20,5.20
2011,03,02,16,21,5.20
2011,03,02,16,22,5.30
2011,03,02,16,23,5.30
2011,03,02,16,24,5.40
2011,03,02,16,25,5.60
2011,03,02,16,27,5.80
2011,03,02,16,28,6.30
2011,03,02,16,29,6.60
2011,03,02,16,30,6.80
2011,03,02,16,31,6.90
2011,03,02,16,32,7.10
2011,03,02,16,33,7.10
2011,03,02,16,34,7.10
2011,03,02,16,35,7.10
2011,03,02,16,36,7.10
2011,03,02,16,37,6.90
2011,03,02,16,38,6.80
2011,03,02,16,39,6.80
2011,03,02,16,40,6.70
2011,03,02,16,42,6.60
2011,03,02,16,43,6.60
2011,03,02,16,44,6.60
2011,03,02,16,45,6.50
2011,03,02,16,47,6.40
2011,03,02,16,48,6.30
2011,03,02,16,49,6.30
2011,03,02,16,50,6.30
2011,03,02,16,53,6.40
2011,03,02,16,54,6.40
2011,03,02,16,55,6.50
2011,03,02,16,56,6.50
2011,03,02,16,57,6.50
2011,03,02,16,58,6.50
2011,03,02,16,59,6.50
2011,03,02,17,00,6.40
2011,03,02,17,01,6.30
2011,03,02,17,02,6.20
2011,03,02,17,03,6.20
2011,03,02,17,04,6.10
2011,03,02,17,05,6.10
2011,03,02,17,06,6.10
2011,03,02,17,07,6.10
2011,03,02,17,09,6.00
2011,03,02,17,10,5.90
2011,03,02,17,11,5.90
2011,03,02,17,12,5.80
2011,03,02,17,13,5.80
2011,03,02,17,14,5.80
2011,03,02,17,15,5.80
2011,03,02,17,16,5.80
2011,03,02,17,17,5.80
2011,03,02,17,18,5.80
2011,03,02,17,19,5.70
2011,03,02,17,20,5.70
2011,03,02,17,21,5.70
2011,03,02,17,22,5.70
2011,03,02,17,23,5.70
2011,03,02,17,24,5.70
2011,03,02,17,25,5.70
2011,03,02,17,26,5.70
2011,03,02,17,28,5.70
2011,03,02,17,29,5.70
2011,03,02,17,30,5.60
2011,03,02,17,31,5.60
2011,03,02,17,32,5.60
2011,03,02,17,34,5.60
2011,03,02,17,35,5.60
2011,03,02,17,36,5.60
2011,03,02,17,37,5.60
2011,03,02,17,38,5.60
2011,03,02,17,39,5.60
2011,03,02,17,40,5.60
2011,03,02,17,41,5.60
2011,03,02,17,42,5.60
2011,03,02,17,43,5.60
2011,03,02,17,44,5.60
2011,03,02,17,45,5.70
2011,03,02,17,46,5.70
2011,03,02,17,47,5.70
2011,03,02,17,48,5.70
2011,03,02,17,49,5.70
2011,03,02,17,50,5.70
2011,03,02,17,51,5.70
2011,03,02,17,52,5.80
2011,03,02,17,53,5.80
2011,03,02,17,55,5.80
2011,03,02,17,56,5.80
2011,03,02,17,57,5.80
2011,03,02,17,59,5.80
2011,03,02,18,00,5.80
2011,03,02,18,01,5.80
2011,03,02,18,02,5.80
2011,03,02,18,04,5.80
2011,03,02,18,05,5.80
2011,03,02,18,06,5.80
2011,03,02,18,07,5.80
2011,03,02,18,08,5.80
2011,03,02,18,09,5.80
2011,03,02,18,10,5.80
2011,03,02,18,11,5.80
2011,03,02,18,12,5.80
2011,03,02,18,13,5.80
2011,03,02,18,14,5.90
2011,03,02,18,15,5.90
2011,03,02,18,16,5.90
2011,03,02,18,17,5.90
2011,03,02,18,19,5.90
2011,03,02,18,20,5.90
2011,03,02,18,21,5.90
2011,03,02,18,22,5.90
2011,03,02,18,24,5.90
2011,03,02,18,25,5.90
2011,03,02,18,26,5.90
2011,03,02,18,27,5.90
2011,03,02,18,29,5.90
2011,03,02,18,30,6.00
2011,03,02,18,31,6.00
2011,03,02,18,32,6.00
2011,03,02,18,34,6.00
2011,03,02,18,35,6.00
2011,03,02,18,36,6.10
2011,03,02,18,37,6.10
2011,03,02,18,39,6.10
2011,03,02,18,40,6.10
2011,03,02,18,41,6.20
2011,03,02,18,42,6.20
2011,03,02,18,44,6.20
2011,03,02,18,45,6.20
2011,03,02,18,46,6.20
2011,03,02,18,47,6.20
2011,03,02,18,49,6.20
2011,03,02,18,50,6.20
2011,03,02,18,51,6.20
2011,03,02,18,52,6.20
2011,03,02,18,53,6.20
2011,03,02,18,55,6.20
2011,03,02,18,56,6.20
2011,03,02,18,57,6.10
2011,03,02,18,58,6.00
2011,03,02,19,00,5.90
2011,03,02,19,01,5.80
2011,03,02,19,02,5.70
2011,03,02,19,03,5.60
2011,03,02,19,05,5.60
2011,03,02,19,06,5.40
2011,03,02,19,07,5.40
2011,03,02,19,09,5.40
2011,03,02,19,10,5.30
2011,03,02,19,11,5.30
2011,03,02,19,12,5.30
2011,03,02,19,14,5.30
2011,03,02,19,15,5.30
2011,03,02,19,16,5.30
2011,03,02,19,17,5.20
2011,03,02,19,19,5.20
2011,03,02,19,20,5.20
2011,03,02,19,21,5.20
2011,03,02,19,22,5.20
2011,03,02,19,24,5.10
2011,03,02,19,25,5.10
2011,03,02,19,26,5.10
2011,03,02,19,27,5.10
2011,03,02,19,29,5.10
2011,03,02,19,30,5.10
2011,03,02,19,31,5.00
2011,03,02,19,32,5.10
2011,03,02,19,33,5.10
2011,03,02,19,34,5.10
2011,03,02,19,36,5.10
2011,03,02,19,37,5.10
2011,03,02,19,38,5.10
2011,03,02,19,39,5.10
2011,03,02,19,40,5.10
2011,03,02,19,42,5.10
2011,03,02,19,43,5.10
2011,03,02,19,44,5.10
2011,03,02,19,45,5.10
2011,03,02,19,47,5.10
2011,03,02,19,48,5.10
2011,03,02,19,49,5.10
2011,03,02,19,50,5.10
2011,03,02,19,51,5.10
2011,03,02,19,52,5.10
2011,03,02,19,53,5.10
2011,03,02,19,54,5.10
2011,03,02,19,55,5.00
2011,03,02,19,57,5.00
2011,03,02,19,58,4.90
2011,03,02,19,59,4.90
2011,03,02,20,00,4.90
2011,03,02,20,02,4.90
2011,03,02,20,03,4.80
2011,03,02,20,04,4.80
2011,03,02,20,05,4.80
2011,03,02,20,06,4.80
2011,03,02,20,07,4.80
2011,03,02,20,08,4.70
2011,03,02,20,09,4.70
2011,03,02,20,10,4.70
2011,03,02,20,12,4.70
2011,03,02,20,13,4.70
2011,03,02,20,14,4.70
2011,03,02,20,15,4.70
2011,03,02,20,16,4.60
2011,03,02,20,18,4.60
2011,03,02,20,19,4.60
2011,03,02,20,20,4.60
2011,03,02,20,21,4.60
2011,03,02,20,22,4.60
2011,03,02,20,23,4.60
2011,03,02,20,24,4.60
2011,03,02,20,25,4.50